FW0864 Weather Reports


time (UTC)temp
C
wind
direction
speed
KPH
gust
KPH
rain 1hr
cm
rain 24hr
cm
rain mn
cm
humidity
%
barometer
mb
20260504151003 13 9 3.2 14.5 0.00 0.00 0.00 75 1012.2
20260504150501 13 354 6.4 12.9 0.00 0.00 0.00 75 1012.2
20260504141052 13 332 1.6 9.7 0.00 0.00 0.00 76 1012.0
20260504140552 13 64 3.2 8.0 0.00 0.00 0.00 76 1012.0
20260504140105 13 20 3.2 6.4 0.00 0.00 0.00 76 1012.0
20260504130550 13 290 1.6 6.4 0.00 0.00 0.00 76 1011.8
20260504110540 13 310 3.2 8.0 0.00 0.00 0.00 76 1011.6
20260504100535 13 264 4.8 11.3 0.00 0.00 0.00 75 1011.1
20260504081527 13 295 8.0 17.7 0.00 0.00 0.00 73 1011.0
20260504081026 13 308 6.4 14.5 0.00 0.00 0.00 73 1011.0
20260504080525 13 253 6.4 14.5 0.00 0.00 0.00 73 1011.0
20260504050504 16 276 6.4 24.1 0.00 0.00 0.00 64 1010.0
20260504050002 16 316 8.0 19.3 0.00 0.00 0.00 63 1010.0
20260504045502 16 293 8.0 25.7 0.00 0.00 0.00 63 1009.9
20260504045004 16 323 8.0 22.5 0.00 0.00 0.00 62 1009.9
20260504044504 16 304 11.3 22.5 0.00 0.00 0.00 62 1009.9
20260504044002 16 296 9.7 22.5 0.00 0.00 0.00 62 1009.9
20260504043503 17 290 11.3 27.4 0.00 0.00 0.00 62 1009.9
20260504043004 17 300 11.3 27.4 0.00 0.00 0.00 62 1009.8
20260504042501 17 245 4.8 24.1 0.00 0.00 0.00 62 1009.8
20260504042100 17 317 11.3 24.1 0.00 0.00 0.00 61 1009.7
20260504041600 17 330 9.7 20.9 0.00 0.00 0.00 61 1009.4
20260504041500 17 346 9.7 20.9 0.00 0.00 0.00 61 1009.4
20260504041000 17 280 6.4 20.9 0.00 0.00 0.00 62 1009.4
20260504040601 17 295 4.8 20.9 0.00 0.00 0.00 62 1009.4
20260504040107 17 320 6.4 17.7 0.00 0.00 0.00 62 1009.3
20260504035600 17 240 3.2 12.9 0.00 0.00 0.00 62 1009.2
20260504035059 17 341 3.2 12.9 0.00 0.00 0.00 61 1009.2
20260504034605 17 262 6.4 12.9 0.00 0.00 0.00 59 1009.0
20260504034059 17 299 4.8 20.9 0.00 0.00 0.00 56 1009.0
20260504033559 17 270 8.0 20.9 0.00 0.00 0.00 55 1008.7
20260504033115 17 249 9.7 19.3 0.00 0.00 0.00 55 1008.7
20260504032601 17 247 9.7 19.3 0.00 0.00 0.00 54 1008.6
20260504032059 17 259 12.9 19.3 0.00 0.00 0.00 54 1008.5
20260504031559 18 239 6.4 24.1 0.00 0.00 0.00 54 1008.5
20260504031059 18 255 12.9 25.7 0.00 0.00 0.00 54 1008.4
20260504030558 18 271 12.9 25.7 0.00 0.00 0.00 54 1008.4
20260504030057 18 274 12.9 20.9 0.00 0.00 0.00 53 1008.3
20260504025557 19 235 9.7 24.1 0.00 0.00 0.00 53 1008.2
20260504025057 19 283 12.9 19.3 0.00 0.00 0.00 54 1008.1
20260504024605 20 264 11.3 22.5 0.00 0.00 0.00 55 1008.0
20260504024056 20 284 6.4 22.5 0.00 0.00 0.00 57 1007.9
20260504023557 20 314 9.7 16.1 0.00 0.00 0.00 57 1007.8
20260504023057 20 285 4.8 16.1 0.00 0.00 0.00 57 1007.7
20260504022558 20 316 6.4 16.1 0.00 0.00 0.00 56 1007.7
20260504022059 20 339 9.7 19.3 0.00 0.00 0.00 56 1007.7
20260504021556 21 4 8.0 19.3 0.00 0.00 0.00 55 1007.6
20260504021056 21 254 6.4 14.5 0.00 0.00 0.00 55 1007.4
20260504020556 21 334 4.8 14.5 0.00 0.00 0.00 54 1007.4
20260504020055 21 319 6.4 17.7 0.00 0.00 0.00 53 1007.4
20260504015556 21 303 9.7 17.7 0.00 0.00 0.00 52 1007.3
20260504015058 21 267 9.7 22.5 0.00 0.00 0.00 51 1007.3
20260504014556 21 274 11.3 22.5 0.00 0.00 0.00 51 1007.2
20260504014058 21 283 12.9 24.1 0.00 0.00 0.00 51 1007.2
20260504013555 21 232 17.7 24.1 0.00 0.00 0.00 50 1007.1
20260504013057 21 256 9.7 25.7 0.00 0.00 0.00 50 1007.2
20260504012555 21 262 14.5 27.4 0.00 0.00 0.00 49 1007.2
20260504012055 21 243 9.7 25.7 0.00 0.00 0.00 49 1007.2
20260504011555 22 285 17.7 25.7 0.00 0.00 0.00 48 1007.2
20260504011055 22 261 14.5 30.6 0.00 0.00 0.00 48 1007.2
20260504010554 22 261 16.1 30.6 0.00 0.00 0.00 47 1007.2
20260504010058 22 284 11.3 29.0 0.00 0.00 0.00 47 1007.1
20260504005554 22 232 11.3 30.6 0.00 0.00 0.00 47 1007.2
20260504005057 22 260 17.7 30.6 0.00 0.00 0.00 47 1007.2
20260504004554 22 252 8.0 22.5 0.00 0.00 0.00 49 1007.2
20260504004053 22 296 11.3 24.1 0.00 0.00 0.00 49 1007.1
20260504003557 23 293 12.9 24.1 0.00 0.00 0.00 48 1007.2
20260504003053 22 260 6.4 14.5 0.00 0.00 0.00 48 1007.1
20260504002553 22 349 6.4 14.5 0.00 0.00 0.00 47 1007.1
20260504002053 23 303 6.4 14.5 0.00 0.00 0.00 47 1007.1
20260504001610 23 336 6.4 14.5 0.00 0.00 0.00 48 1007.1
20260504001053 22 235 3.2 12.9 0.00 0.00 0.00 49 1007.1
20260504000553 22 342 4.8 20.9 0.00 0.00 0.00 50 1007.0
20260504000052 22 316 9.7 20.9 0.00 0.00 0.00 50 1007.0
20260503235552 22 272 11.3 19.3 0.00 0.00 0.00 50 1007.0
20260503235052 22 255 6.4 16.1 0.00 0.00 0.00 49 1007.0
20260503234553 22 338 6.4 20.9 0.00 0.00 0.00 49 1006.9
20260503234052 23 268 6.4 20.9 0.00 0.00 0.00 49 1007.0
20260503233552 23 272 11.3 16.1 0.00 0.00 0.00 47 1007.1
20260503233052 23 304 3.2 14.5 0.00 0.00 0.00 48 1007.2
20260503232556 22 343 3.2 17.7 0.00 0.00 0.00 49 1007.2
20260503232051 22 345 8.0 20.9 0.00 0.00 0.00 48 1007.2
20260503231554 23 279 11.3 20.9 0.00 0.00 0.00 49 1007.2
20260503231052 22 359 6.4 16.1 0.00 0.00 0.00 50 1007.3
20260503230552 22 301 8.0 17.7 0.00 0.00 0.00 49 1007.3
20260503230052 22 9 8.0 24.1 0.00 0.00 0.00 50 1007.3
20260503225551 22 297 11.3 17.7 0.00 0.00 0.00 50 1007.3
20260503225052 23 308 8.0 20.9 0.00 0.00 0.00 49 1007.4
20260503224550 23 9 4.8 20.9 0.00 0.00 0.00 47 1007.4
20260503224051 22 36 1.6 17.7 0.00 0.00 0.00 49 1007.5
20260503223551 22 343 3.2 24.1 0.00 0.00 0.00 50 1007.5
20260503223051 23 10 6.4 24.1 0.00 0.00 0.00 47 1007.5
20260503222554 23 246 12.9 24.1 0.00 0.00 0.00 46 1007.5
20260503222051 23 256 8.0 17.7 0.00 0.00 0.00 44 1007.6
20260503221550 23 272 12.9 17.7 0.00 0.00 0.00 45 1007.7
20260503221052 23 252 8.0 16.1 0.00 0.00 0.00 46 1007.7
20260503220549 22 304 9.7 22.5 0.00 0.00 0.00 46 1007.7
20260503220105 22 266 9.7 22.5 0.00 0.00 0.00 47 1007.7
20260503215548 22 259 6.4 19.3 0.00 0.00 0.00 46 1007.7
20260503215049 22 237 8.0 17.7 0.00 0.00 0.00 47 1007.9
20260503214549 22 301 9.7 20.9 0.00 0.00 0.00 47 1007.9
20260503214050 22 332 11.3 20.9 0.00 0.00 0.00 46 1007.9
20260503213551 22 168 4.8 22.5 0.00 0.00 0.00 46 1007.9
20260503213050 23 264 9.7 22.5 0.00 0.00 0.00 45 1008.0
20260503212549 23 260 9.7 24.1 0.00 0.00 0.00 45 1007.9
20260503212048 22 262 9.7 24.1 0.00 0.00 0.00 46 1007.9
20260503211601 22 277 11.3 27.4 0.00 0.00 0.00 45 1008.1
20260503211052 22 235 16.1 27.4 0.00 0.00 0.00 46 1008.1
20260503210548 23 262 8.0 20.9 0.00 0.00 0.00 45 1008.1
20260503210054 23 262 11.3 20.9 0.00 0.00 0.00 45 1008.1
20260503205547 23 87 4.8 16.1 0.00 0.00 0.00 44 1008.1
20260503205047 23 219 6.4 16.1 0.00 0.00 0.00 46 1008.2
20260503204552 22 233 6.4 24.1 0.00 0.00 0.00 48 1008.2
20260503204044 22 274 12.9 24.1 0.00 0.00 0.00 47 1008.2
20260503203544 22 312 8.0 20.9 0.00 0.00 0.00 48 1008.2
20260503203044 22 222 4.8 20.9 0.00 0.00 0.00 49 1008.3
20260503202544 22 212 8.0 19.3 0.00 0.00 0.00 48 1008.3
20260503202047 22 257 9.7 19.3 0.00 0.00 0.00 50 1008.3
20260503201544 22 147 4.8 14.5 0.00 0.00 0.00 51 1008.3
20260503201043 22 301 4.8 17.7 0.00 0.00 0.00 49 1008.5
20260503200547 22 270 9.7 17.7 0.00 0.00 0.00 50 1008.5
20260503200042 22 343 4.8 12.9 0.00 0.00 0.00 50 1008.4
20260503195541 21 41 1.6 19.3 0.00 0.00 0.00 54 1008.5
20260503195040 21 4 9.7 19.3 0.00 0.00 0.00 52 1008.7
20260503194539 21 327 0.0 17.7 0.00 0.00 0.00 53 1008.6
20260503194040 21 285 3.2 16.1 0.00 0.00 0.00 55 1008.7
20260503193538 20 258 3.2 19.3 0.00 0.00 0.00 53 1008.8
20260503193045 20 245 8.0 19.3 0.00 0.00 0.00 53 1008.9
20260503192537 20 354 9.7 17.7 0.00 0.00 0.00 53 1008.9
20260503192041 20 307 1.6 9.7 0.00 0.00 0.00 55 1009.0
20260503191538 20 295 4.8 16.1 0.00 0.00 0.00 55 1009.0
20260503191037 20 70 8.0 16.1 0.00 0.00 0.00 54 1009.1
20260503190537 20 257 3.2 14.5 0.00 0.00 0.00 54 1009.1
20260503190037 20 4 3.2 14.5 0.00 0.00 0.00 55 1009.1
20260503185535 20 354 1.6 11.3 0.00 0.00 0.00 56 1009.2
20260503185036 20 255 4.8 11.3 0.00 0.00 0.00 56 1009.3
20260503184533 20 260 3.2 14.5 0.00 0.00 0.00 56 1009.3
20260503184032 19 251 4.8 12.9 0.00 0.00 0.00 57 1009.3
20260503183532 19 301 4.8 12.9 0.00 0.00 0.00 58 1009.4
20260503183037 18 43 3.2 19.3 0.00 0.00 0.00 59 1009.5
20260503182529 18 299 9.7 19.3 0.00 0.00 0.00 59 1009.5
20260503182029 18 249 6.4 14.5 0.00 0.00 0.00 59 1009.5
20260503181547 18 264 6.4 14.5 0.00 0.00 0.00 61 1009.4
20260503181028 18 251 8.0 14.5 0.00 0.00 0.00 60 1009.6
20260503180530 18 291 4.8 12.9 0.00 0.00 0.00 60 1009.6
20260503180025 18 270 4.8 20.9 0.00 0.00 0.00 62 1009.6
20260503175523 17 285 6.4 20.9 0.00 0.00 0.00 62 1009.6
20260503175023 17 337 6.4 14.5 0.00 0.00 0.00 62 1009.6
20260503174522 17 328 4.8 16.1 0.00 0.00 0.00 64 1009.6
20260503174022 17 289 6.4 16.1 0.00 0.00 0.00 63 1009.6
20260503173624 17 251 6.4 16.1 0.00 0.00 0.00 63 1009.6
20260503173039 17 222 8.0 16.1 0.00 0.00 0.00 64 1009.5
20260503172518 17 324 3.2 16.1 0.00 0.00 0.00 66 1009.4
20260503172022 16 264 6.4 16.1 0.00 0.00 0.00 65 1009.3
20260503171518 16 317 6.4 12.9 0.00 0.00 0.00 65 1009.4
20260503171016 16 270 3.2 12.9 0.00 0.00 0.00 68 1009.5
20260503170519 16 345 3.2 12.9 0.00 0.00 0.00 68 1009.4